Etusivu
METAR-TAF:

METAR-TAF

Lentoasemat :

Omak Airport

Omak, Washington, Yhdysvallat

Leveyspiiri: 48-27-51N, Pituuspiiri: 119-31-05W, korkeus merenpinnasta: 397 m

Tämänhetkinen sää

Tämä raportti tehtiin 33 minuuttia sitten, kello 17.53 UTC
tyyntä
Lämpötila 18°C
Kosteus 30%
Ilmanpaine 1007 hPa
Näkyvyys: 16.1 km
Hajonneita pilviä 8500 ft:n korkeudessa

METAR: KOMK 201753Z AUTO 00000KT 10SM BKN085 18/00 A2973 RMK AO2 SLP065 T01780000 10183 20117 58008

Aika: 11:26 (18:26 UTC)


TAF: puuttuu

Säähavainnot ja -ennusteet yli 4000 lentoasemalta (METAR- ja TAF-raportit).

Käytössä olevat sääasemat on merkitty karttaan keltaisilla ja punaisilla pisteillä.

Aseta hiiri pisteen päälle nähdäksesi sääaseman nimen.

Klikkaa sitten nähdäksesi säähavainnot ja -ennusteet.

Kartan vaihtaminen: klikkaa mustalla rastilla varustettuja vihreitä pisteitä, niin voit zoomata sisään; viivalla varustettua vihreää pistettä, niin voit zoomata ulos tai vihreitä nuolia, niin pääset viereisille kartoille.


METAR-TAF: